Letzte Messung
Zeitpunkt Temperatur Luftfeuchte Luftdruck
2020-09-19 14:06:44 18.69 ℃ 82.62 % 1025.76 hPa

Zeitpunkt Temperatur Luftfeuchte Luftdruck
2020-09-19 14:06:44 18.69 ℃ 82.62 % 1025.76 hPa
2020-09-19 13:56:44 18.2 ℃ 84.57 % 1025.87 hPa
2020-09-19 13:46:44 18.53 ℃ 82.08 % 1025.94 hPa
2020-09-19 13:36:44 18.34 ℃ 80.56 % 1026.01 hPa
2020-09-19 13:26:44 18.12 ℃ 80.58 % 1026.1 hPa
2020-09-19 13:16:44 17.86 ℃ 78.98 % 1026.15 hPa
2020-09-19 13:06:44 17.58 ℃ 77.95 % 1026.22 hPa
2020-09-19 12:56:44 17.5 ℃ 76.61 % 1026.29 hPa
2020-09-19 12:46:44 17.73 ℃ 79.39 % 1026.32 hPa
2020-09-19 12:36:44 17.56 ℃ 82.18 % 1026.43 hPa
2020-09-19 12:26:44 17.35 ℃ 83.3 % 1026.53 hPa
2020-09-19 12:16:45 17.19 ℃ 84.24 % 1026.66 hPa
2020-09-19 12:06:44 17.13 ℃ 86.58 % 1026.76 hPa
2020-09-19 11:56:44 16.91 ℃ 89.36 % 1026.87 hPa
2020-09-19 11:46:44 16.74 ℃ 91.65 % 1026.92 hPa
2020-09-19 11:36:44 16.44 ℃ 93.72 % 1026.98 hPa
2020-09-19 11:26:44 16.36 ℃ 94.13 % 1027.01 hPa
2020-09-19 11:16:44 16.29 ℃ 96.71 % 1027.06 hPa
2020-09-19 11:06:44 16.12 ℃ 100 % 1027.11 hPa
2020-09-19 10:56:44 15.82 ℃ 100 % 1027.15 hPa
2020-09-19 10:46:44 15.51 ℃ 100 % 1027.17 hPa
2020-09-19 10:36:44 15.31 ℃ 100 % 1027.2 hPa
2020-09-19 10:26:44 15.09 ℃ 100 % 1027.24 hPa
2020-09-19 10:16:44 14.73 ℃ 100 % 1027.31 hPa
2020-09-19 10:06:44 14.59 ℃ 100 % 1027.33 hPa
2020-09-19 09:56:44 13.94 ℃ 100 % 1027.41 hPa
2020-09-19 09:46:44 13.64 ℃ 100 % 1027.41 hPa
2020-09-19 09:36:44 13.49 ℃ 100 % 1027.39 hPa
2020-09-19 09:26:44 13.59 ℃ 100 % 1027.35 hPa
2020-09-19 09:16:44 13.64 ℃ 100 % 1027.29 hPa
2020-09-19 09:06:44 13.62 ℃ 100 % 1027.25 hPa
2020-09-19 08:56:44 13.25 ℃ 100 % 1027.27 hPa
2020-09-19 08:46:44 12.75 ℃ 100 % 1027.23 hPa
2020-09-19 08:36:44 12.03 ℃ 100 % 1027.24 hPa
2020-09-19 08:26:44 11.88 ℃ 100 % 1027.2 hPa
2020-09-19 08:16:44 11.29 ℃ 100 % 1027.23 hPa
Durchschnitt 15.69 ℃ 92.37 % 1026.85 hPa

weatherino

Wetterdaten aus der Harmsstraße 54 in 24114 Kiel (4. OG, außen), die per BME280 und einem ESP-32 erhoben werden.

Unter https://wetter.janbpunkt.de/weather.xml steht eine entsprechende XML bereit, die das jüngste Messergebnis enthält.

Da der weatherino ab und zu ausfällt/gewartet wird, können Messpunkte fehlen.

Mehr zu dem Projekt findet man hier.

SSL, keine Cookies, keine IP-Adress-Speicherung, keine Verarbeitung von personenbezogenen Daten

Impressum

Extremwerte

Nachfolgend die Extremwerte seit Aufzeichnung.

BezeichnungWertZeitpunkt
Niedrigste Temperatur-0.99 ℃2020-03-23 06:17:03
Höchste Temperatur30.87 ℃2020-08-06 16:22:59
Niedrigster Luftdruck984.55 hPa2020-02-29 18:47:55
Höchster Luftdruck1042.34 hPa2020-03-23 07:47:03
Niedrigste Luftfeuchtigkeit21.35 %2020-03-25 15:06:57
Höchste Luftfeuchtigkeit100 %2020-06-11 06:39:27